Flag for Brazil Weather past 2 weeks in Tabatinga, Amazonas, Brazil

Now
75 °F

Broken clouds.


Feels Like: 75 °F
Forecast: 75 / 92 °F
Wind: No wind

Location: Leticia / Vasquez Cobo

Current Time: Sep 20, 2014 at 10:08:19 AM

Latest Report: Sep 20, 2014 at 8:00 AM


Visibility: N/A

Pressure: 29.94 "Hg

Humidity: 89%

Dew point: 72 °F

Location of TabatingaLocation

Historic Weather in Tabatinga — Graph

°F

Tabatinga temperature yesterday

Maximum temperature yesterday: 91 °F (at 2:00 PM)
Minimum temperature yesterday: 73 °F (at 3:00 AM)
Average temperature yesterday: 82 °F

Past Weeks' High & Low Weather Summary

 TemperatureHumidityPressure
High93 °F (Sep 6, 2:00 PM)100% (Sep 6, 2:00 AM)30.00 "Hg (Sep 6, 2:00 AM)
Low72 °F (Sep 7, 4:00 AM)52% (Sep 14, 1:00 PM)29.70 "Hg (Sep 11, 5:00 PM)
Average80 °F88%29.87 "Hg
* Reported Sep 5 8:00 AM — Sep 20 8:00 AM, Tabatinga, Weather by CustomWeather, © 2014

Note: Actual official high and low records may vary slightly from our data, if they occured in-between our weather recording intervals... More about our weather records

Advertising

Tabatinga weather history for previous 24 hours

 ConditionsComfort  
Time TempWeatherWind HumidityBarometerVisibility
8:00 AM
Sep 20
75 °FBroken clouds.No wind89%29.94 "HgN/A
7:00 AM73 °FThunderstorms. Partly sunny.5 mph94%29.91 "Hg4 mi
6:00 AM75 °FBroken clouds.No wind100%29.87 "HgN/A
5:00 AM75 °FPassing clouds.No wind94%29.83 "HgN/A
4:00 AM75 °FPassing clouds.No wind100%29.82 "HgN/A
2:00 AM75 °FPassing clouds.No wind100%29.82 "HgN/A
12:00 AM77 °FPassing clouds.No wind94%29.84 "HgN/A
11:00 PM
Sep 19
77 °FPassing clouds.No wind94%29.85 "HgN/A
10:00 PM77 °FPassing clouds.No wind100%29.85 "HgN/A
9:00 PM77 °FPassing clouds.No wind94%29.82 "HgN/A
8:00 PM79 °FPassing clouds.No wind94%29.79 "HgN/A
7:00 PM79 °FPassing clouds.No wind100%29.76 "HgN/A
6:00 PM79 °FThunderstorms. Passing clouds.No wind94%29.75 "HgN/A
5:00 PM90 °FDrizzle. Broken clouds.No wind79%29.73 "Hg6 mi
4:00 PM91 °FBroken clouds.5 mph75%29.73 "HgN/A
3:00 PM91 °FPartly sunny.6 mph71%29.76 "HgN/A
2:00 PM91 °FBroken clouds.6 mph71%29.79 "HgN/A
1:00 PM90 °FPartly sunny.5 mph75%29.85 "HgN/A
12:00 PM90 °FPartly sunny.5 mph75%29.90 "HgN/A
11:00 AM86 °FScattered clouds.5 mph79%29.94 "HgN/A
10:00 AM84 °FPartly sunny.5 mph84%29.97 "HgN/A
Weather by CustomWeather, © 2014

See weather overviewHow to use our weather pages